GW0552 Weather Reports


time (UTC)temp
F
wind
direction
speed
knots
gust
knots
rain 1hr
in
rain 24hr
in
rain mn
in
humidity
%
barometer
mb
20260504173357 70 93 7.8 11.3 0.00 0.00 0.00 56 1007.0
20260504172855 70 137 6.1 8.7 0.00 0.00 0.00 59 1006.8
20260504172351 70 169 4.3 5.2 0.00 0.00 0.00 58 1007.1
20260504171847 70 138 0.9 1.7 0.00 0.00 0.00 61 1007.0
20260504171345 68 113 4.3 6.1 0.00 0.00 0.00 60 1007.1
20260504170842 68 127 6.1 7.8 0.00 0.00 0.00 59 1006.9
20260504170338 68 113 6.1 7.0 0.00 0.00 0.00 60 1007.4
20260504160257 65 124 3.5 4.3 0.00 0.00 0.00 68 1008.0
20260504150722 61 125 2.6 2.6 0.00 0.00 0.00 75 1009.2
20260504150219 61 132 2.6 2.6 0.00 0.00 0.00 74 1009.5
20260504141148 56 120 5.2 6.1 0.00 0.00 0.00 80 1009.4
20260504140645 56 134 5.2 8.7 0.00 0.00 0.00 81 1009.7
20260504140140 55 165 4.3 5.2 0.00 0.00 0.00 80 1009.8
20260504130609 57 165 4.3 5.2 0.00 0.00 0.00 70 1009.8
20260504130106 57 115 6.1 7.8 0.00 0.00 0.00 69 1009.4
20260504110456 42 127 0.0 0.0 0.00 0.00 0.00 96 1009.0
20260504100419 42 129 0.0 0.0 0.00 0.00 0.00 96 1009.1
20260504081812 42 132 0.0 0.0 0.00 0.00 0.00 96 1009.9
20260504081309 42 132 0.0 0.0 0.00 0.00 0.00 96 1010.0
20260504080805 42 133 0.0 0.0 0.00 0.00 0.00 96 1009.9
20260504080301 42 132 0.0 0.0 0.00 0.00 0.00 96 1009.9
20260504070229 44 132 0.0 0.0 0.00 0.00 0.00 93 1010.2
20260504060149 47 134 0.9 0.9 0.00 0.00 0.00 90 1010.7
20260504050618 49 128 1.7 1.7 0.00 0.00 0.00 88 1010.8
20260504050115 49 133 1.7 1.7 0.00 0.00 0.00 92 1011.2
20260504045612 49 138 1.7 1.7 0.00 0.00 0.00 92 1011.2
20260504045106 49 137 1.7 1.7 0.00 0.00 0.00 91 1011.4
20260504044605 49 137 0.9 0.9 0.00 0.00 0.00 90 1011.3
20260504044101 49 130 0.9 0.9 0.00 0.00 0.00 90 1011.3
20260504043558 49 151 1.7 1.7 0.00 0.00 0.00 89 1011.3
20260504043055 49 135 1.7 1.7 0.00 0.00 0.00 88 1011.6
20260504042552 49 108 2.6 4.3 0.00 0.00 0.00 89 1011.5
20260504042049 49 136 1.7 1.7 0.00 0.00 0.00 90 1011.6
20260504041545 49 137 1.7 1.7 0.00 0.00 0.00 92 1011.2
20260504041041 49 134 0.9 1.7 0.00 0.00 0.00 91 1011.6
20260504040539 49 140 1.7 1.7 0.00 0.00 0.00 90 1011.6
20260504040035 49 131 2.6 2.6 0.00 0.00 0.00 90 1011.7
20260504035532 49 140 0.0 0.0 0.00 0.00 0.00 88 1011.6
20260504035029 49 128 0.0 0.0 0.00 0.00 0.00 86 1011.9
20260504034527 49 139 0.0 0.0 0.00 0.00 0.00 86 1011.6
20260504034023 49 135 0.0 0.0 0.00 0.00 0.00 84 1011.7
20260504033521 50 141 0.0 0.0 0.00 0.00 0.00 85 1011.4
20260504033018 50 136 0.0 0.0 0.00 0.00 0.00 83 1011.3
20260504032515 50 136 0.0 0.0 0.00 0.00 0.00 81 1011.3
20260504032012 50 102 0.0 0.0 0.00 0.00 0.00 81 1011.5
20260504031509 50 131 0.0 0.0 0.00 0.00 0.00 79 1011.5
20260504031005 50 126 0.9 0.9 0.00 0.00 0.00 78 1011.7
20260504030503 50 130 0.0 0.0 0.00 0.00 0.00 78 1011.6
20260504025958 50 133 0.0 0.0 0.00 0.00 0.00 79 1011.7
20260504025455 50 146 1.7 1.7 0.00 0.00 0.00 78 1011.6
20260504024952 50 136 0.0 0.0 0.00 0.00 0.00 77 1011.5
20260504024449 50 132 0.0 0.0 0.00 0.00 0.00 76 1011.7
20260504023946 50 130 0.0 0.0 0.00 0.00 0.00 77 1011.5
20260504023443 50 133 0.0 0.0 0.00 0.00 0.00 75 1011.6
20260504022938 50 133 0.0 0.0 0.00 0.00 0.00 74 1011.5
20260504022435 50 133 0.0 0.0 0.00 0.00 0.00 75 1011.5
20260504021932 50 134 0.0 0.0 0.00 0.00 0.00 75 1011.5
20260504021429 51 133 0.0 0.0 0.00 0.00 0.00 75 1011.4
20260504020926 51 141 0.0 0.0 0.00 0.00 0.00 75 1011.1
20260504020423 51 139 1.7 1.7 0.00 0.00 0.00 75 1011.0
20260504015919 51 142 1.7 1.7 0.00 0.00 0.00 75 1011.1
20260504015415 51 140 1.7 1.7 0.00 0.00 0.00 74 1010.7
20260504014912 51 141 0.9 0.9 0.00 0.00 0.00 74 1010.7
20260504014408 51 138 1.7 2.6 0.00 0.00 0.00 74 1010.9
20260504013905 51 137 0.0 0.0 0.00 0.00 0.00 73 1010.8
20260504013403 51 137 0.0 0.0 0.00 0.00 0.00 71 1010.9
20260504012859 51 137 0.0 0.0 0.00 0.00 0.00 71 1010.8
20260504012357 51 137 0.0 0.0 0.00 0.00 0.00 71 1011.0
20260504011854 51 140 0.9 0.9 0.00 0.00 0.00 71 1011.0
20260504011351 51 136 0.9 0.9 0.00 0.00 0.00 72 1011.0
20260504010847 51 151 1.7 1.7 0.00 0.00 0.00 70 1011.0
20260504010342 51 138 0.9 0.9 0.00 0.00 0.00 70 1010.9
20260504005839 51 141 1.7 1.7 0.00 0.00 0.00 69 1011.1
20260504005336 52 140 1.7 1.7 0.00 0.00 0.00 68 1011.0
20260504004833 52 134 0.9 0.9 0.00 0.00 0.00 67 1011.0
20260504004331 52 137 0.9 0.9 0.00 0.00 0.00 66 1011.1
20260504003827 53 133 0.9 0.9 0.00 0.00 0.00 65 1011.0
20260504003324 53 137 0.9 0.9 0.00 0.00 0.00 63 1011.3
20260504002821 53 134 0.9 0.9 0.00 0.00 0.00 61 1011.0
20260504002318 53 136 0.9 1.7 0.00 0.00 0.00 61 1010.9
20260504001816 54 137 0.9 0.9 0.00 0.00 0.00 59 1010.9
20260504001313 54 136 0.9 1.7 0.00 0.00 0.00 59 1011.1
20260504000809 54 136 0.9 0.9 0.00 0.00 0.00 60 1011.0
20260504000306 55 135 0.0 0.0 0.00 0.00 0.00 57 1011.1
20260503235804 56 127 0.0 0.0 0.00 0.00 0.00 55 1011.2
20260503235304 57 136 0.0 0.0 0.00 0.00 0.00 50 1011.1
20260503234759 57 137 0.9 0.9 0.00 0.00 0.00 49 1010.6
20260503234257 58 133 0.0 0.0 0.00 0.00 0.00 48 1010.9
20260503233754 59 133 0.0 0.0 0.00 0.00 0.00 45 1010.9
20260503233249 59 134 0.0 0.9 0.00 0.00 0.00 47 1010.7
20260503232747 60 127 0.0 0.9 0.00 0.00 0.00 45 1010.9
20260503232244 60 131 0.9 0.9 0.00 0.00 0.00 45 1011.2
20260503231742 60 118 1.7 1.7 0.00 0.00 0.00 38 1011.1
20260503231239 61 142 1.7 1.7 0.00 0.00 0.00 40 1011.3
20260503230734 61 140 0.0 0.0 0.00 0.00 0.00 38 1011.3
20260503230232 61 138 0.0 0.0 0.00 0.00 0.00 38 1011.2
20260503225729 61 123 3.5 4.3 0.00 0.00 0.00 37 1011.4
20260503225229 62 158 0.9 4.3 0.00 0.00 0.00 36 1011.6
20260503224726 62 171 1.7 1.7 0.00 0.00 0.00 35 1011.5
20260503224224 62 114 1.7 2.6 0.00 0.00 0.00 37 1011.5
20260503223722 62 139 1.7 4.3 0.00 0.00 0.00 36 1011.6
20260503223219 62 117 2.6 2.6 0.00 0.00 0.00 34 1011.6
20260503222715 62 94 4.3 5.2 0.00 0.00 0.00 35 1011.7
20260503222213 62 140 2.6 2.6 0.00 0.00 0.00 35 1011.8
20260503221712 62 121 2.6 2.6 0.00 0.00 0.00 37 1011.7
20260503221209 62 125 3.5 5.2 0.00 0.00 0.00 36 1011.5
20260503220705 62 119 3.5 7.0 0.00 0.00 0.00 35 1011.5
20260503220202 63 126 3.5 4.3 0.00 0.00 0.00 36 1011.6
20260503215659 63 130 7.8 8.7 0.00 0.00 0.00 35 1011.6
20260503215155 63 132 0.0 0.9 0.00 0.00 0.00 35 1011.6
20260503214654 64 121 0.9 0.9 0.00 0.00 0.00 35 1011.6
20260503214149 63 115 2.6 2.6 0.00 0.00 0.00 35 1011.7
20260503213644 64 133 2.6 4.3 0.00 0.00 0.00 34 1011.4
20260503213140 63 163 2.6 4.3 0.00 0.00 0.00 36 1011.8
20260503212637 63 129 3.5 4.3 0.00 0.00 0.00 35 1012.1
20260503212135 63 95 3.5 4.3 0.00 0.00 0.00 38 1012.0
20260503211632 64 162 2.6 4.3 0.00 0.00 0.00 36 1011.9
20260503211127 64 168 2.6 4.3 0.00 0.00 0.00 39 1011.8
20260503210624 64 141 4.3 8.7 0.00 0.00 0.00 37 1012.1
20260503210120 64 131 3.5 4.3 0.00 0.00 0.00 35 1012.1
20260503205616 63 150 3.5 4.3 0.00 0.00 0.00 36 1011.9
20260503205113 65 154 0.0 0.9 0.00 0.00 0.00 36 1011.9
20260503204610 63 150 0.9 0.9 0.00 0.00 0.00 35 1012.3
20260503204107 64 109 1.7 1.7 0.00 0.00 0.00 35 1012.3
20260503203604 63 134 0.9 1.7 0.00 0.00 0.00 35 1012.2
20260503203101 63 155 1.7 1.7 0.00 0.00 0.00 34 1012.5
20260503202559 64 130 2.6 4.3 0.00 0.00 0.00 36 1012.2
20260503202057 63 105 4.3 5.2 0.00 0.00 0.00 35 1012.6
20260503201555 62 121 3.5 4.3 0.00 0.00 0.00 35 1012.8
20260503201052 63 138 4.3 5.2 0.00 0.00 0.00 35 1012.8
20260503200548 62 141 0.9 0.9 0.00 0.00 0.00 37 1012.9
20260503200044 62 132 3.5 5.2 0.00 0.00 0.00 40 1012.9
20260503195541 63 130 4.3 5.2 0.00 0.00 0.00 36 1012.9
20260503195038 62 130 0.0 0.0 0.00 0.00 0.00 37 1012.9
20260503194536 62 135 1.7 2.6 0.00 0.00 0.00 35 1013.1
20260503194035 63 136 2.6 2.6 0.00 0.00 0.00 35 1013.2
20260503193532 63 159 2.6 4.3 0.00 0.00 0.00 40 1013.2
20260503193027 62 130 0.9 0.9 0.00 0.00 0.00 37 1013.5
20260503192524 62 251 1.7 2.6 0.00 0.00 0.00 41 1013.6
20260503192020 61 126 0.0 0.9 0.00 0.00 0.00 36 1013.5
20260503191517 62 156 3.5 6.1 0.00 0.00 0.00 40 1013.5
20260503191014 63 143 3.5 4.3 0.00 0.00 0.00 39 1013.7
20260503190510 61 124 2.6 2.6 0.00 0.00 0.00 37 1013.9
20260503190008 60 67 0.0 0.0 0.00 0.00 0.00 41 1014.0
20260503185503 60 148 1.7 1.7 0.00 0.00 0.00 41 1014.0
20260503184958 60 124 0.0 0.9 0.00 0.00 0.00 37 1014.1
20260503184454 60 232 2.6 4.3 0.00 0.00 0.00 38 1014.1
20260503183951 60 120 1.7 1.7 0.00 0.00 0.00 38 1014.2
20260503183448 60 122 0.0 0.0 0.00 0.00 0.00 41 1014.3
20260503182944 60 140 0.0 0.9 0.00 0.00 0.00 38 1014.6
20260503182443 60 105 1.7 2.6 0.00 0.00 0.00 43 1014.6
20260503181940 61 355 5.2 7.8 0.00 0.00 0.00 37 1014.7
20260503181437 60 126 0.9 0.9 0.00 0.00 0.00 43 1015.0
20260503180933 60 34 2.6 4.3 0.00 0.00 0.00 43 1014.9
20260503180432 60 137 5.2 6.1 0.00 0.00 0.00 43 1015.0
20260503175928 60 148 0.9 0.9 0.00 0.00 0.00 42 1015.0
20260503175427 59 150 0.9 0.9 0.00 0.00 0.00 40 1015.0
20260503174922 58 136 1.7 2.6 0.00 0.00 0.00 44 1015.2
20260503174421 58 118 1.7 1.7 0.00 0.00 0.00 40 1015.2
20260503173920 58 324 3.5 7.0 0.00 0.00 0.00 45 1015.5